Year,Month,Day,Hour,Minute,Value (Times are PST for temperature in C)
2014,05,30,08,29,12.60
2014,05,30,08,30,12.70
2014,05,30,08,31,12.80
2014,05,30,08,32,12.80
2014,05,30,08,33,12.90
2014,05,30,08,34,12.90
2014,05,30,08,35,13.00
2014,05,30,08,36,13.00
2014,05,30,08,37,13.00
2014,05,30,08,38,13.10
2014,05,30,08,39,13.20
2014,05,30,08,40,13.30
2014,05,30,08,41,13.30
2014,05,30,08,42,13.40
2014,05,30,08,43,13.40
2014,05,30,08,44,13.50
2014,05,30,08,45,13.60
2014,05,30,08,46,13.70
2014,05,30,08,47,13.70
2014,05,30,08,48,13.70
2014,05,30,08,49,13.70
2014,05,30,08,50,13.80
2014,05,30,08,51,13.80
2014,05,30,08,52,13.80
2014,05,30,08,53,13.90
2014,05,30,08,54,13.90
2014,05,30,08,55,13.90
2014,05,30,08,56,14.00
2014,05,30,08,57,14.10
2014,05,30,08,58,14.10
2014,05,30,08,59,14.20
2014,05,30,09,00,14.20
2014,05,30,09,01,14.20
2014,05,30,09,02,14.20
2014,05,30,09,03,14.20
2014,05,30,09,04,14.20
2014,05,30,09,05,14.20
2014,05,30,09,06,14.20
2014,05,30,09,07,14.20
2014,05,30,09,08,14.30
2014,05,30,09,09,14.30
2014,05,30,09,10,14.30
2014,05,30,09,11,14.30
2014,05,30,09,12,14.20
2014,05,30,09,13,14.20
2014,05,30,09,14,14.30
2014,05,30,09,15,14.20
2014,05,30,09,16,14.20
2014,05,30,09,17,14.20
2014,05,30,09,18,14.20
2014,05,30,09,19,14.20
2014,05,30,09,20,14.20
2014,05,30,09,21,14.20
2014,05,30,09,22,14.30
2014,05,30,09,23,14.30
2014,05,30,09,24,14.30
2014,05,30,09,25,14.30
2014,05,30,09,26,14.20
2014,05,30,09,27,14.20
2014,05,30,09,28,14.20
2014,05,30,09,29,14.10
2014,05,30,09,30,14.00
2014,05,30,09,31,14.00
2014,05,30,09,32,14.00
2014,05,30,09,33,14.00
2014,05,30,09,34,14.10
2014,05,30,09,35,14.10
2014,05,30,09,36,14.10
2014,05,30,09,37,14.20
2014,05,30,09,38,14.10
2014,05,30,09,39,14.10
2014,05,30,09,40,14.10
2014,05,30,09,41,14.10
2014,05,30,09,42,14.20
2014,05,30,09,43,14.20
2014,05,30,09,44,14.10
2014,05,30,09,45,14.10
2014,05,30,09,46,14.00
2014,05,30,09,47,14.00
2014,05,30,09,48,14.00
2014,05,30,09,49,14.00
2014,05,30,09,50,14.10
2014,05,30,09,51,14.10
2014,05,30,09,52,14.20
2014,05,30,09,53,14.20
2014,05,30,09,54,14.20
2014,05,30,09,55,14.20
2014,05,30,09,56,14.30
2014,05,30,09,57,14.40
2014,05,30,09,58,14.50
2014,05,30,09,59,14.60
2014,05,30,10,00,14.70
2014,05,30,10,01,14.70
2014,05,30,10,02,14.80
2014,05,30,10,03,14.80
2014,05,30,10,04,14.80
2014,05,30,10,05,14.90
2014,05,30,10,06,14.90
2014,05,30,10,07,14.90
2014,05,30,10,08,14.90
2014,05,30,10,09,14.90
2014,05,30,10,10,14.90
2014,05,30,10,11,14.90
2014,05,30,10,12,14.80
2014,05,30,10,13,14.80
2014,05,30,10,14,14.80
2014,05,30,10,15,14.80
2014,05,30,10,16,14.80
2014,05,30,10,17,14.80
2014,05,30,10,18,14.80
2014,05,30,10,19,14.80
2014,05,30,10,20,14.80
2014,05,30,10,21,14.80
2014,05,30,10,22,14.80
2014,05,30,10,23,14.80
2014,05,30,10,24,14.80
2014,05,30,10,25,14.90
2014,05,30,10,26,15.00
2014,05,30,10,27,15.00
2014,05,30,10,28,15.10
2014,05,30,10,29,15.10
2014,05,30,10,30,15.10
2014,05,30,10,31,15.10
2014,05,30,10,32,15.10
2014,05,30,10,33,15.10
2014,05,30,10,34,15.20
2014,05,30,10,35,15.20
2014,05,30,10,36,15.30
2014,05,30,10,37,15.30
2014,05,30,10,38,15.30
2014,05,30,10,39,15.30
2014,05,30,10,40,15.40
2014,05,30,10,41,15.50
2014,05,30,10,42,15.50
2014,05,30,10,43,15.60
2014,05,30,10,44,15.60
2014,05,30,10,45,15.60
2014,05,30,10,46,15.50
2014,05,30,10,47,15.50
2014,05,30,10,48,15.50
2014,05,30,10,49,15.50
2014,05,30,10,50,15.50
2014,05,30,10,51,15.50
2014,05,30,10,52,15.50
2014,05,30,10,53,15.60
2014,05,30,10,54,15.60
2014,05,30,10,55,15.70
2014,05,30,10,56,15.80
2014,05,30,10,57,15.80
2014,05,30,10,58,15.90
2014,05,30,10,59,16.00
2014,05,30,11,00,16.20
2014,05,30,11,01,16.30
2014,05,30,11,02,16.40
2014,05,30,11,03,16.40
2014,05,30,11,04,16.50
2014,05,30,11,05,16.60
2014,05,30,11,06,16.70
2014,05,30,11,07,16.70
2014,05,30,11,08,16.70
2014,05,30,11,09,16.60
2014,05,30,11,10,16.50
2014,05,30,11,11,16.40
2014,05,30,11,12,16.30
2014,05,30,11,13,16.20
2014,05,30,11,14,16.30
2014,05,30,11,15,16.40
2014,05,30,11,16,16.40
2014,05,30,11,17,16.40
2014,05,30,11,18,16.50
2014,05,30,11,19,16.60
2014,05,30,11,20,16.70
2014,05,30,11,21,16.70
2014,05,30,11,22,16.70
2014,05,30,11,23,16.80
2014,05,30,11,24,16.90
2014,05,30,11,25,16.80
2014,05,30,11,26,16.80
2014,05,30,11,27,16.90
2014,05,30,11,28,16.90
2014,05,30,11,29,16.90
2014,05,30,11,30,17.00
2014,05,30,11,31,16.90
2014,05,30,11,32,16.80
2014,05,30,11,33,16.80
2014,05,30,11,34,16.70
2014,05,30,11,35,16.70
2014,05,30,11,36,16.70
2014,05,30,11,37,16.70
2014,05,30,11,38,16.70
2014,05,30,11,39,16.70
2014,05,30,11,40,16.70
2014,05,30,11,41,16.70
2014,05,30,11,42,16.80
2014,05,30,11,43,16.90
2014,05,30,11,44,16.90
2014,05,30,11,45,16.90
2014,05,30,11,46,16.80
2014,05,30,11,47,16.80
2014,05,30,11,48,16.80
2014,05,30,11,49,16.90
2014,05,30,11,50,16.90
2014,05,30,11,51,16.80
2014,05,30,11,52,16.90
2014,05,30,11,53,16.90
2014,05,30,11,54,16.90
2014,05,30,11,55,16.90
2014,05,30,11,56,17.00
2014,05,30,11,57,17.00
2014,05,30,11,58,17.20
2014,05,30,11,59,17.20
2014,05,30,12,00,17.20
2014,05,30,12,01,17.10
2014,05,30,12,02,17.00
2014,05,30,12,03,17.00
2014,05,30,12,04,17.00
2014,05,30,12,05,17.00
2014,05,30,12,06,17.20
2014,05,30,12,07,17.20
2014,05,30,12,08,17.30
2014,05,30,12,09,17.40
2014,05,30,12,10,17.50
2014,05,30,12,11,17.50
2014,05,30,12,12,17.50
2014,05,30,12,13,17.50
2014,05,30,12,14,17.50
2014,05,30,12,15,17.50
2014,05,30,12,16,17.40
2014,05,30,12,17,17.30
2014,05,30,12,18,17.30
2014,05,30,12,19,17.20
2014,05,30,12,20,17.10
2014,05,30,12,21,17.10
2014,05,30,12,22,17.10
2014,05,30,12,23,17.10
2014,05,30,12,24,17.10
2014,05,30,12,25,17.00
2014,05,30,12,26,17.00
2014,05,30,12,27,17.00
2014,05,30,12,28,17.00
2014,05,30,12,29,17.10
2014,05,30,12,30,17.20
2014,05,30,12,31,17.20
2014,05,30,12,32,17.20
2014,05,30,12,33,17.20
2014,05,30,12,34,17.20
2014,05,30,12,35,17.20
2014,05,30,12,36,17.20
2014,05,30,12,37,17.20
2014,05,30,12,38,17.20
2014,05,30,12,39,17.20
2014,05,30,12,40,17.20
2014,05,30,12,41,17.20
2014,05,30,12,42,17.20
2014,05,30,12,43,17.20
2014,05,30,12,44,17.20
2014,05,30,12,45,17.30
2014,05,30,12,46,17.30
2014,05,30,12,47,17.40
2014,05,30,12,48,17.50
2014,05,30,12,49,17.60
2014,05,30,12,50,17.60
2014,05,30,12,51,17.60
2014,05,30,12,52,17.60
2014,05,30,12,53,17.60
2014,05,30,12,54,17.70
2014,05,30,12,55,17.60
2014,05,30,12,56,17.60
2014,05,30,12,57,17.60
2014,05,30,12,58,17.60
2014,05,30,12,59,17.70
2014,05,30,13,00,17.70
2014,05,30,13,01,17.70
2014,05,30,13,02,17.70
2014,05,30,13,03,17.80
2014,05,30,13,04,17.90
2014,05,30,13,05,17.90
2014,05,30,13,06,17.90
2014,05,30,13,07,17.90
2014,05,30,13,08,17.90
2014,05,30,13,09,17.80
2014,05,30,13,10,17.80
2014,05,30,13,11,17.80
2014,05,30,13,12,17.70
2014,05,30,13,13,17.60
2014,05,30,13,14,17.60
2014,05,30,13,15,17.70
2014,05,30,13,16,17.70
2014,05,30,13,17,17.70
2014,05,30,13,18,17.80
2014,05,30,13,19,17.80
2014,05,30,13,20,17.90
2014,05,30,13,21,17.90
2014,05,30,13,22,17.90
2014,05,30,13,23,17.90
2014,05,30,13,24,18.00
2014,05,30,13,25,18.10
2014,05,30,13,26,18.20
2014,05,30,13,27,18.10
2014,05,30,13,28,18.10
2014,05,30,13,29,18.10
2014,05,30,13,30,18.10
2014,05,30,13,31,18.10
2014,05,30,13,32,18.20
2014,05,30,13,33,18.20
2014,05,30,13,34,18.20
2014,05,30,13,35,18.30
2014,05,30,13,36,18.40
2014,05,30,13,37,18.40
2014,05,30,13,38,18.40
2014,05,30,13,39,18.30
2014,05,30,13,40,18.30
2014,05,30,13,41,18.30
2014,05,30,13,42,18.30
2014,05,30,13,43,18.40
2014,05,30,13,44,18.40
2014,05,30,13,45,18.30
2014,05,30,13,46,18.30
2014,05,30,13,47,18.40
2014,05,30,13,48,18.50
2014,05,30,13,49,18.50
2014,05,30,13,50,18.60
2014,05,30,13,51,18.60
2014,05,30,13,52,18.60
2014,05,30,13,53,18.40
2014,05,30,13,54,18.30
2014,05,30,13,55,18.30
2014,05,30,13,56,18.20
2014,05,30,13,57,18.20
2014,05,30,13,58,18.30
2014,05,30,13,59,18.40
2014,05,30,14,00,18.40
2014,05,30,14,01,18.30
2014,05,30,14,02,18.40
2014,05,30,14,03,18.40
2014,05,30,14,04,18.50
2014,05,30,14,05,18.60
2014,05,30,14,06,18.50
2014,05,30,14,07,18.50
2014,05,30,14,08,18.50
2014,05,30,14,09,18.50
2014,05,30,14,10,18.50
2014,05,30,14,11,18.50
2014,05,30,14,12,18.50
2014,05,30,14,13,18.60
2014,05,30,14,14,18.60
2014,05,30,14,15,18.60
2014,05,30,14,16,18.60
2014,05,30,14,17,18.70
2014,05,30,14,18,18.70
2014,05,30,14,19,18.70
2014,05,30,14,20,18.80
2014,05,30,14,21,18.80
2014,05,30,14,22,18.80
2014,05,30,14,23,18.90
2014,05,30,14,24,19.00
2014,05,30,14,25,19.10
2014,05,30,14,26,19.20
2014,05,30,14,27,19.20
2014,05,30,14,28,19.10
2014,05,30,14,29,19.10
2014,05,30,14,30,19.10
2014,05,30,14,31,19.00
2014,05,30,14,32,18.90
2014,05,30,14,33,18.90
2014,05,30,14,34,18.90
2014,05,30,14,35,18.80
2014,05,30,14,36,18.80
2014,05,30,14,37,18.80
2014,05,30,14,38,18.90
2014,05,30,14,39,18.90
2014,05,30,14,40,19.00
2014,05,30,14,41,19.10
2014,05,30,14,42,19.10
2014,05,30,14,43,19.10
2014,05,30,14,44,19.20
2014,05,30,14,45,19.20
2014,05,30,14,46,19.20
2014,05,30,14,47,19.20
2014,05,30,14,48,19.20
2014,05,30,14,49,19.20
2014,05,30,14,50,19.20
2014,05,30,14,51,19.20
2014,05,30,14,52,19.20
2014,05,30,14,53,19.20
2014,05,30,14,54,19.10
2014,05,30,14,55,19.10
2014,05,30,14,56,19.10
2014,05,30,14,57,19.10
2014,05,30,14,58,19.20
2014,05,30,14,59,19.30
2014,05,30,15,00,19.30
2014,05,30,15,01,19.30
2014,05,30,15,02,19.40
2014,05,30,15,03,19.40
2014,05,30,15,04,19.50
2014,05,30,15,05,19.50
2014,05,30,15,06,19.50
2014,05,30,15,07,19.50
2014,05,30,15,08,19.50
2014,05,30,15,09,19.50
2014,05,30,15,10,19.50
2014,05,30,15,11,19.50
2014,05,30,15,12,19.40
2014,05,30,15,13,19.40
2014,05,30,15,14,19.50
2014,05,30,15,15,19.40
2014,05,30,15,16,19.40
2014,05,30,15,17,19.40
2014,05,30,15,18,19.30
2014,05,30,15,19,19.20
2014,05,30,15,20,19.20
2014,05,30,15,21,19.30
2014,05,30,15,22,19.10
2014,05,30,15,23,19.10
2014,05,30,15,24,19.10
2014,05,30,15,25,19.10
2014,05,30,15,26,19.10
2014,05,30,15,27,19.10
2014,05,30,15,28,19.10
2014,05,30,15,29,19.10
2014,05,30,15,30,19.10
2014,05,30,15,31,19.10
2014,05,30,15,32,19.10
2014,05,30,15,33,19.10
2014,05,30,15,34,19.10
2014,05,30,15,35,19.10
2014,05,30,15,36,19.10
2014,05,30,15,37,19.10
2014,05,30,15,38,19.00
2014,05,30,15,39,19.00
2014,05,30,15,40,19.10
2014,05,30,15,41,19.00
2014,05,30,15,42,18.90
2014,05,30,15,43,19.00
2014,05,30,15,44,19.10
2014,05,30,15,45,19.10
2014,05,30,15,46,19.10
2014,05,30,15,47,19.10
2014,05,30,15,48,19.20
2014,05,30,15,49,19.30
2014,05,30,15,50,19.30
2014,05,30,15,51,19.30
2014,05,30,15,52,19.30
2014,05,30,15,53,19.20
2014,05,30,15,54,19.10
2014,05,30,15,55,19.10
2014,05,30,15,56,19.10
2014,05,30,15,57,19.10
2014,05,30,15,58,19.00
2014,05,30,15,59,18.90
2014,05,30,16,00,18.90
2014,05,30,16,01,18.90
2014,05,30,16,02,18.90
2014,05,30,16,03,18.90
2014,05,30,16,04,18.90
2014,05,30,16,05,18.90
2014,05,30,16,06,18.90
2014,05,30,16,07,18.90
2014,05,30,16,08,18.90
2014,05,30,16,09,18.90
2014,05,30,16,10,18.90
2014,05,30,16,11,18.80
2014,05,30,16,12,18.80
2014,05,30,16,13,18.80
2014,05,30,16,14,18.70
2014,05,30,16,15,18.70
2014,05,30,16,16,18.60
2014,05,30,16,17,18.50
2014,05,30,16,18,18.50
2014,05,30,16,19,18.50
2014,05,30,16,20,18.40
2014,05,30,16,21,18.30
2014,05,30,16,22,18.30
2014,05,30,16,23,18.30
2014,05,30,16,24,18.20
2014,05,30,16,25,18.20
2014,05,30,16,26,18.20
2014,05,30,16,27,18.10
2014,05,30,16,28,18.10
2014,05,30,16,29,18.10
2014,05,30,16,30,18.10
2014,05,30,16,31,18.10
2014,05,30,16,32,18.10
2014,05,30,16,33,18.10
2014,05,30,16,34,18.00
2014,05,30,16,35,17.90
2014,05,30,16,36,17.90
2014,05,30,16,37,17.90
2014,05,30,16,38,17.90
2014,05,30,16,39,17.90
2014,05,30,16,40,17.90
2014,05,30,16,41,17.90
2014,05,30,16,42,17.90
2014,05,30,16,43,17.90
2014,05,30,16,44,17.90
2014,05,30,16,45,17.90
2014,05,30,16,46,17.90
2014,05,30,16,47,17.90
2014,05,30,16,48,17.90
2014,05,30,16,49,17.90
2014,05,30,16,50,17.90
2014,05,30,16,51,17.90
2014,05,30,16,52,17.90
2014,05,30,16,53,17.90
2014,05,30,16,54,17.90
2014,05,30,16,55,17.90
2014,05,30,16,56,17.90
2014,05,30,16,57,17.90
2014,05,30,16,58,17.90
2014,05,30,16,59,17.90
2014,05,30,17,00,17.90
2014,05,30,17,01,17.90
2014,05,30,17,02,17.90
2014,05,30,17,03,17.90
2014,05,30,17,04,17.90
2014,05,30,17,05,17.90
2014,05,30,17,06,17.90
2014,05,30,17,07,17.90
2014,05,30,17,08,17.90
2014,05,30,17,09,17.90
2014,05,30,17,10,17.90
2014,05,30,17,11,17.90
